786  
ASUS41 KRLX 251510  
RWRRLX  
WEST VIRGINIA REGIONAL WEATHER ROUNDUP  
NATIONAL WEATHER SERVICE CHARLESTON WV  
1100 AM EDT SUN JUN 25 2017  
 
NOTE: "FAIR" INDICATES FEW OR NO CLOUDS BELOW 12,000 FEET WITH NO  
SIGNIFICANT WEATHER AND/OR S TO VISIBILITY
.  
 
WVZ003-251600-  
NORTHERN PANHANDLE OF WEST VIRGINIA  
 
CITY SKY/WX TMP DP RH WIND PRES REMARKS
 
WHEELING MOSUNNY 69 49 48 W16G22 30.10S  

 
 
WVZ009-251600-  
NORTHWEST WEST VIRGINIA  
 
CITY SKY/WX TMP DP RH WIND PRES REMARKS
 
PARKERSBURG SUNNY 72 49 44 W10 30.17S  

 
 
WVZ006-251600-  
WESTERN WEST VIRGINIA  
 
CITY SKY/WX TMP DP RH WIND PRES REMARKS
 
HUNTINGTON SUNNY 73 47 39 NW7 30.18R  

 
 
WVZ015-251600-  
WEST CENTRAL WEST VIRGINIA  
 
CITY SKY/WX TMP DP RH WIND PRES REMARKS
 
CHARLESTON MOSUNNY 72 52 49 SW8 30.18R  

 
 
WVZ022-031-251600-  
NORTH CENTRAL WEST VIRGINIA  
 
CITY SKY/WX TMP DP RH WIND PRES REMARKS
 
CLARKSBURG MOSUNNY 70 50 49 W13G22 30.13S  
MORGANTOWN PTSUNNY 71 55 56 SW10G20 30.12S  

 
 
WVZ025-035-042-045-251600-  
SOUTHERN WEST VIRGINIA  
 
CITY SKY/WX TMP DP RH WIND PRES REMARKS
 
BECKLEY SUNNY 67 48 50 NW10 30.21R  
LOGAN N/A 70 52 52 CALM 30.20S  
BLUEFIELD PTSUNNY 63 51 65 NW9G16 30.23R  
LEWISBURG MOSUNNY 68 51 54 W10G17 30.19R  

 
 
WVZ047-251600-  
NORTHERN MOUNTAINS OF WEST VIRGINIA  
 
CITY SKY/WX TMP DP RH WIND PRES REMARKS
 
ELKINS PTSUNNY 68 50 52 SW9 30.16S  

 
 
WVZ052-251600-  
EASTERN PANHANDLE OF WEST VIRGINIA  
 
CITY SKY/WX TMP DP RH WIND PRES REMARKS
 
MARTINSBURG MOSUNNY 77 58 51 MISG 30.05S  
PETERSBURG MOSUNNY 77 56 47 W6 30.11R  

 
 
 
CLICK HERE TO GO TO PREVIOUS BULLETINS.

The Nexlab WV Page
The Nexlab OH Page
The Nexlab KY Page
The Nexlab VA Page Main Text Page